Location: *
(51.1248°S, 108.4023°W)
Time: 20:37:31
(UTC+00:00)

USA 281 - Pass Details

Date: 23 October 2021
Orbit: 1078 x 1081 km, 106.0° (Epoch: 25 November)

Event Time Altitude Azimuth Distance (km) Brightness Sun altitude
Exits shadow 04:09:09 - 349° (NNW) 3,439 5.5 -17.5°
Reaches altitude 10° 04:10:44 10° 342° (NNW) 2,926 5.2 -17.7°
Maximum altitude 04:16:22 30° 283° (WNW) 1,863 4.7 -18.3°
Drops below altitude 10° 04:22:04 10° 223° (SW) 2,956 6.8 -18.9°
Sets 04:25:00 0° 212° (SSW) 3,919 7.8 -19.2°
